Time,TemperatureF,DewpointF,PressureIn,WindDirection,WindDirectionDegrees,WindSpeedMPH,WindSpeedGustMPH,Humidity,HourlyPrecipIn,Conditions,Clouds,dailyrainin,SoftwareType,DateUTC
2013-04-25 00:01:00,27.9,7.7,28.32,East,99,0.0,0.0,42,0.00,CLR,OVC,0.00,WeatherDisplay:10.37,2013-04-25 04:01:00,
2013-04-25 00:02:00,27.9,8.2,28.32,East,99,0.0,0.0,43,0.00,CLR,OVC,0.00,WeatherDisplay:10.37,2013-04-25 04:02:00,
2013-04-25 00:07:00,27.9,8.2,28.32,East,99,0.0,0.0,43,0.00,CLR,OVC,0.00,WeatherDisplay:10.37,2013-04-25 04:07:00,
2013-04-25 00:12:00,27.9,10.2,28.32,East,99,0.0,0.0,47,0.00,CLR,OVC,0.00,WeatherDisplay:10.37,2013-04-25 04:12:00,
2013-04-25 00:17:00,27.9,9.7,28.32,East,99,0.0,0.0,46,0.00,CLR,OVC,0.00,WeatherDisplay:10.37,2013-04-25 04:17:00,
2013-04-25 00:22:00,27.7,9.6,28.32,East,99,0.0,0.0,46,0.00,CLR,OVC,0.00,WeatherDisplay:10.37,2013-04-25 04:22:00,
2013-04-25 00:27:00,27.7,9.1,28.32,East,99,0.0,0.0,45,0.00,CLR,OVC,0.00,WeatherDisplay:10.37,2013-04-25 04:27:00,
2013-04-25 00:32:00,27.7,8.6,28.32,East,99,0.0,0.0,44,0.00,CLR,OVC,0.00,WeatherDisplay:10.37,2013-04-25 04:32:00,
2013-04-25 00:37:00,27.9,8.7,28.32,East,99,0.0,0.0,44,0.00,CLR,OVC,0.00,WeatherDisplay:10.37,2013-04-25 04:37:00,
2013-04-25 00:42:00,28.2,11.5,28.32,East,99,0.0,0.0,49,0.00,CLR,OVC,0.00,WeatherDisplay:10.37,2013-04-25 04:42:00,
2013-04-25 00:47:00,28.4,11.6,28.32,East,99,0.0,0.0,49,0.00,CLR,OVC,0.00,WeatherDisplay:10.37,2013-04-25 04:47:00,
2013-04-25 00:52:00,28.6,10.9,28.29,East,99,0.0,0.0,47,0.00,CLR,OVC,0.00,WeatherDisplay:10.37,2013-04-25 04:52:00,
2013-04-25 00:57:00,28.8,10.6,28.29,East,99,0.0,0.0,46,0.00,CLR,OVC,0.00,WeatherDisplay:10.37,2013-04-25 04:57:00,
2013-04-25 01:02:00,29.1,10.4,28.29,East,99,0.0,0.0,45,0.00,CLR,OVC,0.00,WeatherDisplay:10.37,2013-04-25 05:02:00,
2013-04-25 01:07:00,29.3,10.1,28.29,East,99,0.0,0.0,44,0.00,CLR,OVC,0.00,WeatherDisplay:10.37,2013-04-25 05:07:00,
2013-04-25 01:12:00,29.5,9.7,28.29,East,99,0.0,0.0,43,0.00,CLR,OVC,0.00,WeatherDisplay:10.37,2013-04-25 05:12:00,
2013-04-25 01:17:00,29.7,9.9,28.29,East,99,0.0,0.0,43,0.00,CLR,OVC,0.00,WeatherDisplay:10.37,2013-04-25 05:17:00,
2013-04-25 01:22:00,29.7,10.4,28.29,East,99,0.0,0.0,44,0.00,CLR,OVC,0.00,WeatherDisplay:10.37,2013-04-25 05:22:00,
2013-04-25 01:27:00,29.8,10.5,28.29,East,99,0.0,0.0,44,0.00,CLR,OVC,0.00,WeatherDisplay:10.37,2013-04-25 05:27:00,
2013-04-25 01:32:00,29.8,10.5,28.29,East,99,0.0,0.0,44,0.00,CLR,OVC,0.00,WeatherDisplay:10.37,2013-04-25 05:32:00,
2013-04-25 01:37:00,29.8,10.0,28.29,East,99,0.0,0.0,43,0.00,CLR,OVC,0.00,WeatherDisplay:10.37,2013-04-25 05:37:00,
2013-04-25 01:42:00,29.8,10.0,28.29,East,99,0.0,0.0,43,0.00,CLR,OVC,0.00,WeatherDisplay:10.37,2013-04-25 05:42:00,
2013-04-25 01:47:00,29.8,10.0,28.29,East,99,0.0,0.0,43,0.00,CLR,OVC,0.00,WeatherDisplay:10.37,2013-04-25 05:47:00,
2013-04-25 01:52:00,29.8,10.0,28.29,East,99,0.0,0.0,43,0.00,CLR,OVC,0.00,WeatherDisplay:10.37,2013-04-25 05:52:00,
2013-04-25 01:57:00,30.0,10.2,28.29,West,272,0.0,0.0,43,0.00,CLR,OVC,0.00,WeatherDisplay:10.37,2013-04-25 05:57:00,
2013-04-25 02:02:00,30.2,10.4,28.29,WNW,285,0.0,3.5,43,0.00,CLR,OVC,0.00,WeatherDisplay:10.37,2013-04-25 06:02:00,
2013-04-25 02:07:00,30.6,9.6,28.29,West,279,0.0,3.5,41,0.00,CLR,OVC,0.00,WeatherDisplay:10.37,2013-04-25 06:07:00,
2013-04-25 02:12:00,31.1,9.6,28.29,West,278,0.0,2.3,40,0.00,CLR,OVC,0.00,WeatherDisplay:10.37,2013-04-25 06:12:00,
2013-04-25 02:17:00,31.3,9.7,28.29,West,278,0.0,0.0,40,0.00,CLR,OVC,0.00,WeatherDisplay:10.37,2013-04-25 06:17:00,
2013-04-25 02:22:00,31.1,9.6,28.29,West,278,0.0,0.0,40,0.00,CLR,OVC,0.00,WeatherDisplay:10.37,2013-04-25 06:22:00,
2013-04-25 02:27:00,30.7,9.2,28.29,West,278,0.0,0.0,40,0.00,CLR,OVC,0.00,WeatherDisplay:10.37,2013-04-25 06:27:00,
2013-04-25 02:32:00,30.9,9.4,28.29,West,278,0.0,0.0,40,0.00,CLR,OVC,0.00,WeatherDisplay:10.37,2013-04-25 06:32:00,
2013-04-25 02:37:00,31.1,9.6,28.29,West,278,0.0,0.0,40,0.00,CLR,OVC,0.00,WeatherDisplay:10.37,2013-04-25 06:37:00,
2013-04-25 02:42:00,31.1,9.6,28.29,West,278,0.0,0.0,40,0.00,CLR,OVC,0.00,WeatherDisplay:10.37,2013-04-25 06:42:00,
2013-04-25 02:47:00,31.1,9.6,28.29,West,278,0.0,0.0,40,0.00,CLR,OVC,0.00,WeatherDisplay:10.37,2013-04-25 06:47:00,
2013-04-25 02:52:00,30.9,9.4,28.29,West,278,0.0,2.3,40,0.00,CLR,OVC,0.00,WeatherDisplay:10.37,2013-04-25 06:52:00,
2013-04-25 02:57:00,30.9,9.9,28.29,West,276,0.0,2.3,41,0.00,CLR,OVC,0.00,WeatherDisplay:10.37,2013-04-25 06:57:00,
2013-04-25 03:02:00,30.9,12.0,28.29,West,281,0.0,0.0,45,0.00,CLR,OVC,0.00,WeatherDisplay:10.37,2013-04-25 07:02:00,
2013-04-25 03:07:00,30.9,14.4,28.29,West,280,0.0,0.0,50,0.00,CLR,OVC,0.00,WeatherDisplay:10.37,2013-04-25 07:07:00,
2013-04-25 03:12:00,31.1,15.5,28.29,NNW,330,0.0,0.0,52,0.00,CLR,OVC,0.00,WeatherDisplay:10.37,2013-04-25 07:12:00,
2013-04-25 03:17:00,31.3,16.5,28.29,West,267,2.2,3.5,54,0.00,CLR,OVC,0.00,WeatherDisplay:10.37,2013-04-25 07:17:00,
2013-04-25 03:22:00,31.8,20.6,28.29,WNW,296,0.0,2.3,63,0.00,CLR,OVC,0.00,WeatherDisplay:10.37,2013-04-25 07:22:00,
2013-04-25 03:27:00,32.0,21.9,28.29,West,262,0.0,3.5,66,0.00,CLR,OVC,0.00,WeatherDisplay:10.37,2013-04-25 07:27:00,
2013-04-25 03:32:00,32.4,23.3,28.29,NW,305,0.0,3.5,69,0.00,CLR,OVC,0.00,WeatherDisplay:10.37,2013-04-25 07:32:00,
2013-04-25 03:37:00,32.7,25.0,28.29,NW,311,0.0,3.5,73,0.00,CLR,OVC,0.00,WeatherDisplay:10.37,2013-04-25 07:37:00,
2013-04-25 03:42:00,32.9,25.5,28.29,NW,325,0.0,0.0,74,0.00,CLR,OVC,0.00,WeatherDisplay:10.37,2013-04-25 07:42:00,
2013-04-25 03:47:00,32.9,25.8,28.29,NW,324,0.0,0.0,75,0.00,CLR,OVC,0.00,WeatherDisplay:10.37,2013-04-25 07:47:00,
2013-04-25 03:52:00,32.9,26.2,28.29,NW,305,0.0,0.0,76,0.00,CLR,OVC,0.00,WeatherDisplay:10.37,2013-04-25 07:52:00,
2013-04-25 03:57:00,32.9,26.2,28.29,WNW,296,0.0,0.0,76,0.00,CLR,OVC,0.00,WeatherDisplay:10.37,2013-04-25 07:57:00,
2013-04-25 04:02:00,32.9,26.2,28.29,WNW,287,0.0,0.0,76,0.00,CLR,OVC,0.00,WeatherDisplay:10.37,2013-04-25 08:02:00,
2013-04-25 04:07:00,32.9,26.2,28.29,WNW,297,0.0,0.0,76,0.00,CLR,OVC,0.00,WeatherDisplay:10.37,2013-04-25 08:07:00,
2013-04-25 04:12:00,32.7,26.3,28.29,WSW,245,0.0,0.0,77,0.00,CLR,OVC,0.00,WeatherDisplay:10.37,2013-04-25 08:12:00,
2013-04-25 04:17:00,32.9,26.2,28.29,NW,311,0.0,0.0,76,0.00,CLR,OVC,0.00,WeatherDisplay:10.37,2013-04-25 08:17:00,
2013-04-25 04:22:00,32.9,26.5,28.29,West,281,0.0,0.0,77,0.00,CLR,OVC,0.00,WeatherDisplay:10.37,2013-04-25 08:22:00,
2013-04-25 04:27:00,32.9,26.5,28.29,NW,314,0.0,0.0,77,0.00,CLR,OVC,0.00,WeatherDisplay:10.37,2013-04-25 08:27:00,
2013-04-25 04:32:00,32.9,26.5,28.29,NW,317,0.0,0.0,77,0.00,CLR,OVC,0.00,WeatherDisplay:10.37,2013-04-25 08:32:00,
2013-04-25 04:37:00,32.9,26.5,28.29,NW,320,0.0,0.0,77,0.00,CLR,OVC,0.00,WeatherDisplay:10.37,2013-04-25 08:37:00,
2013-04-25 04:42:00,32.7,26.6,28.29,NW,320,0.0,0.0,78,0.00,CLR,OVC,0.00,WeatherDisplay:10.37,2013-04-25 08:42:00,
2013-04-25 04:47:00,32.9,26.5,28.29,SW,223,0.0,0.0,77,0.00,CLR,OVC,0.00,WeatherDisplay:10.37,2013-04-25 08:47:00,
2013-04-25 04:52:00,32.7,26.6,28.29,NNW,338,0.0,0.0,78,0.00,CLR,OVC,0.00,WeatherDisplay:10.37,2013-04-25 08:52:00,
2013-04-25 04:57:00,32.7,26.6,28.29,WNW,300,0.0,0.0,78,0.00,CLR,OVC,0.00,WeatherDisplay:10.37,2013-04-25 08:57:00,
2013-04-25 05:02:00,32.7,26.6,28.29,NW,304,0.0,0.0,78,0.00,CLR,OVC,0.00,WeatherDisplay:10.37,2013-04-25 09:02:00,
2013-04-25 05:07:00,32.7,26.6,28.29,North,357,0.0,0.0,78,0.00,CLR,OVC,0.00,WeatherDisplay:10.37,2013-04-25 09:07:00,
2013-04-25 05:12:00,32.7,26.6,28.29,NW,320,0.0,0.0,78,0.00,CLR,OVC,0.00,WeatherDisplay:10.37,2013-04-25 09:12:00,
2013-04-25 05:17:00,32.7,26.6,28.29,NW,317,0.0,0.0,78,0.00,CLR,OVC,0.00,WeatherDisplay:10.37,2013-04-25 09:17:00,
2013-04-25 05:22:00,32.5,26.4,28.29,NW,318,0.0,0.0,78,0.00,CLR,OVC,0.00,WeatherDisplay:10.37,2013-04-25 09:22:00,
2013-04-25 05:27:00,32.4,26.3,28.29,NNW,332,0.0,0.0,78,0.00,CLR,OVC,0.00,WeatherDisplay:10.37,2013-04-25 09:27:00,
2013-04-25 05:32:00,32.2,26.1,28.29,NNW,328,0.0,0.0,78,0.00,CLR,OVC,0.00,WeatherDisplay:10.37,2013-04-25 09:32:00,
2013-04-25 05:37:00,32.0,25.9,28.29,NNW,330,0.0,0.0,78,0.00,CLR,OVC,0.00,WeatherDisplay:10.37,2013-04-25 09:37:00,
2013-04-25 05:42:00,31.8,25.7,28.29,NNW,341,0.0,0.0,78,0.00,CLR,OVC,0.00,WeatherDisplay:10.37,2013-04-25 09:42:00,
2013-04-25 05:47:00,31.8,25.7,28.29,NNW,340,0.0,0.0,78,0.00,CLR,OVC,0.00,WeatherDisplay:10.37,2013-04-25 09:47:00,
2013-04-25 05:52:00,31.6,25.6,28.29,West,264,0.0,0.0,78,0.00,CLR,OVC,0.00,WeatherDisplay:10.37,2013-04-25 09:52:00,
2013-04-25 05:57:00,31.6,25.6,28.29,NW,326,0.0,0.0,78,0.00,CLR,OVC,0.00,WeatherDisplay:10.37,2013-04-25 09:57:00,
2013-04-25 06:02:00,31.6,25.6,28.29,West,281,0.0,0.0,78,0.00,CLR,OVC,0.00,WeatherDisplay:10.37,2013-04-25 10:02:00,
2013-04-25 06:07:00,31.6,25.3,28.32,NNW,327,0.0,0.0,77,0.00,CLR,OVC,0.00,WeatherDisplay:10.37,2013-04-25 10:07:00,
2013-04-25 06:12:00,31.5,25.1,28.32,NW,315,0.0,0.0,77,0.00,CLR,OVC,0.00,WeatherDisplay:10.37,2013-04-25 10:12:00,
2013-04-25 06:17:00,31.5,25.1,28.32,NNW,332,0.0,0.0,77,0.00,CLR,OVC,0.00,WeatherDisplay:10.37,2013-04-25 10:17:00,
2013-04-25 06:22:00,31.5,25.1,28.32,NW,320,0.0,0.0,77,0.00,CLR,OVC,0.00,WeatherDisplay:10.37,2013-04-25 10:22:00,
2013-04-25 06:27:00,31.3,24.9,28.32,NNW,337,0.0,0.0,77,0.00,CLR,OVC,0.00,WeatherDisplay:10.37,2013-04-25 10:27:00,
2013-04-25 06:32:00,31.3,24.9,28.32,NW,304,0.0,0.0,77,0.00,CLR,OVC,0.00,WeatherDisplay:10.37,2013-04-25 10:32:00,
2013-04-25 06:37:00,31.5,25.1,28.32,NNW,332,0.0,0.0,77,0.00,CLR,OVC,0.00,WeatherDisplay:10.37,2013-04-25 10:37:00,
2013-04-25 06:42:00,31.5,25.1,28.32,NW,320,0.0,0.0,77,0.00,CLR,OVC,0.00,WeatherDisplay:10.37,2013-04-25 10:42:00,
2013-04-25 06:47:00,31.5,25.1,28.32,West,262,2.2,3.5,77,0.00,CLR,OVC,0.00,WeatherDisplay:10.37,2013-04-25 10:47:00,
2013-04-25 06:52:00,31.6,25.3,28.32,NNW,330,0.0,3.5,77,0.00,CLR,OVC,0.00,WeatherDisplay:10.37,2013-04-25 10:52:00,
2013-04-25 06:57:00,31.6,25.3,28.32,NNW,343,0.0,0.0,77,0.00,CLR,OVC,0.00,WeatherDisplay:10.37,2013-04-25 10:57:00,
2013-04-25 07:02:00,31.6,25.3,28.32,West,261,0.0,3.5,77,0.00,CLR,OVC,0.00,WeatherDisplay:10.37,2013-04-25 11:02:00,
2013-04-25 07:07:00,31.6,25.3,28.32,NNW,343,0.0,3.5,77,0.00,CLR,OVC,0.00,WeatherDisplay:10.37,2013-04-25 11:07:00,
2013-04-25 07:12:00,31.6,25.3,28.32,NW,311,2.2,5.8,77,0.00,CLR,OVC,0.00,WeatherDisplay:10.37,2013-04-25 11:12:00,
2013-04-25 07:17:00,31.6,25.3,28.32,NW,320,0.0,2.7,77,0.00,CLR,OVC,0.00,WeatherDisplay:10.37,2013-04-25 11:17:00,
2013-04-25 07:22:00,31.6,24.9,28.32,NW,322,3.1,5.8,76,0.00,CLR,OVC,0.00,WeatherDisplay:10.37,2013-04-25 11:22:00,
2013-04-25 07:27:00,31.6,24.9,28.32,North,0,0.0,3.5,76,0.00,CLR,OVC,0.00,WeatherDisplay:10.37,2013-04-25 11:27:00,
2013-04-25 07:32:00,31.6,24.9,28.32,NNW,332,0.0,3.5,76,0.00,CLR,OVC,0.00,WeatherDisplay:10.37,2013-04-25 11:32:00,
2013-04-25 07:37:00,31.6,24.6,28.35,NW,322,0.0,3.5,75,0.00,CLR,OVC,0.00,WeatherDisplay:10.37,2013-04-25 11:37:00,
2013-04-25 07:42:00,31.6,24.6,28.35,NW,308,0.0,3.1,75,0.00,CLR,OVC,0.00,WeatherDisplay:10.37,2013-04-25 11:42:00,
2013-04-25 07:47:00,31.6,24.3,28.35,NW,318,0.0,3.5,74,0.00,CLR,OVC,0.00,WeatherDisplay:10.37,2013-04-25 11:47:00,
2013-04-25 07:52:00,31.6,24.0,28.35,NW,319,2.7,3.5,73,0.00,CLR,OVC,0.00,WeatherDisplay:10.37,2013-04-25 11:52:00,
2013-04-25 07:57:00,31.8,24.1,28.35,WNW,286,2.2,0.0,73,0.00,CLR,OVC,0.00,WeatherDisplay:10.37,2013-04-25 11:57:00,
2013-04-25 08:02:00,31.8,23.5,28.35,NW,325,2.2,5.8,71,0.00,CLR,OVC,0.00,WeatherDisplay:10.37,2013-04-25 12:02:00,
2013-04-25 08:07:00,31.6,22.6,28.35,WSW,251,0.0,4.0,69,0.00,CLR,OVC,0.00,WeatherDisplay:10.37,2013-04-25 12:07:00,
2013-04-25 08:12:00,31.6,21.6,28.35,NW,326,3.1,4.6,66,0.00,CLR,OVC,0.00,WeatherDisplay:10.37,2013-04-25 12:12:00,
2013-04-25 08:17:00,31.6,21.2,28.35,NW,315,4.5,5.8,65,0.00,CLR,OVC,0.00,WeatherDisplay:10.37,2013-04-25 12:17:00,
2013-04-25 08:22:00,31.6,19.7,28.38,NW,305,2.2,3.5,61,0.00,CLR,OVC,0.00,WeatherDisplay:10.37,2013-04-25 12:22:00,
2013-04-25 08:27:00,31.8,19.5,28.38,NW,316,2.7,5.8,60,0.00,CLR,OVC,0.00,WeatherDisplay:10.37,2013-04-25 12:27:00,
2013-04-25 08:32:00,31.8,19.5,28.38,WNW,290,4.0,6.9,60,0.00,CLR,OVC,0.00,WeatherDisplay:10.37,2013-04-25 12:32:00,
2013-04-25 08:37:00,32.0,18.9,28.38,WNW,298,2.2,3.5,58,0.00,CLR,OVC,0.00,WeatherDisplay:10.37,2013-04-25 12:37:00,
2013-04-25 08:42:00,32.2,19.0,28.38,NW,321,3.1,3.5,58,0.00,CLR,OVC,0.00,WeatherDisplay:10.37,2013-04-25 12:42:00,
2013-04-25 08:47:00,32.4,19.2,28.38,WNW,282,0.0,3.5,58,0.00,CLR,OVC,0.00,WeatherDisplay:10.37,2013-04-25 12:47:00,
2013-04-25 08:52:00,32.5,18.6,28.38,North,353,2.2,3.5,56,0.00,CLR,OVC,0.00,WeatherDisplay:10.37,2013-04-25 12:52:00,
2013-04-25 08:57:00,32.9,18.9,28.38,NW,317,0.0,3.5,56,0.00,CLR,OVC,0.00,WeatherDisplay:10.37,2013-04-25 12:57:00,
2013-04-25 09:02:00,33.1,17.3,28.38,NW,320,3.1,4.9,52,0.00,CLR,OVC,0.00,WeatherDisplay:10.37,2013-04-25 13:02:00,
2013-04-25 09:07:00,33.6,17.8,28.38,NW,320,2.7,5.8,52,0.00,CLR,OVC,0.00,WeatherDisplay:10.37,2013-04-25 13:07:00,
2013-04-25 09:12:00,33.8,16.2,28.38,NW,313,4.0,5.8,48,0.00,CLR,OVC,0.00,WeatherDisplay:10.37,2013-04-25 13:12:00,
2013-04-25 09:17:00,34.2,16.0,28.38,NW,321,3.6,5.8,47,0.00,CLR,OVC,0.00,WeatherDisplay:10.37,2013-04-25 13:17:00,
2013-04-25 09:22:00,34.7,16.0,28.41,WSW,253,2.7,4.6,46,0.00,CLR,OVC,0.00,WeatherDisplay:10.37,2013-04-25 13:22:00,
2013-04-25 09:27:00,34.2,14.5,28.41,WNW,296,4.5,8.1,44,0.00,CLR,OVC,0.00,WeatherDisplay:10.37,2013-04-25 13:27:00,
2013-04-25 09:32:00,34.2,15.5,28.41,WNW,302,3.6,4.6,46,0.00,CLR,OVC,0.00,WeatherDisplay:10.37,2013-04-25 13:32:00,
2013-04-25 09:37:00,34.5,15.8,28.41,NW,317,0.0,3.5,46,0.00,CLR,OVC,0.00,WeatherDisplay:10.37,2013-04-25 13:37:00,
2013-04-25 09:42:00,35.1,14.8,28.41,NW,315,4.9,5.8,43,0.00,CLR,OVC,0.00,WeatherDisplay:10.37,2013-04-25 13:42:00,
2013-04-25 09:47:00,34.5,13.8,28.41,NW,319,3.6,10.4,42,0.00,CLR,OVC,0.00,WeatherDisplay:10.37,2013-04-25 13:47:00,
2013-04-25 09:52:00,35.1,14.2,28.41,NNW,330,2.7,8.1,42,0.00,CLR,OVC,0.00,WeatherDisplay:10.37,2013-04-25 13:52:00,
2013-04-25 09:57:00,35.8,14.3,28.41,NNW,332,5.4,8.1,41,0.00,CLR,OVC,0.00,WeatherDisplay:10.37,2013-04-25 13:57:00,
2013-04-25 10:02:00,37.2,14.5,28.41,NNW,330,2.7,6.3,39,0.00,CLR,OVC,0.00,WeatherDisplay:10.37,2013-04-25 14:02:00,
2013-04-25 10:07:00,39.0,14.9,28.41,West,268,4.0,4.0,37,0.00,CLR,OVC,0.00,WeatherDisplay:10.37,2013-04-25 14:07:00,
2013-04-25 10:12:00,37.8,12.5,28.41,WNW,295,5.8,8.1,35,0.00,CLR,OVC,0.00,WeatherDisplay:10.37,2013-04-25 14:12:00,
2013-04-25 10:17:00,38.3,12.3,28.41,West,268,7.6,9.2,34,0.00,CLR,OVC,0.00,WeatherDisplay:10.37,2013-04-25 14:17:00,
2013-04-25 10:22:00,38.5,13.2,28.41,NNW,337,5.4,5.8,35,0.00,CLR,OVC,0.00,WeatherDisplay:10.37,2013-04-25 14:22:00,
2013-04-25 10:27:00,38.8,12.8,28.41,WNW,286,4.9,10.4,34,0.00,CLR,OVC,0.00,WeatherDisplay:10.37,2013-04-25 14:27:00,
2013-04-25 10:32:00,39.0,12.3,28.41,NW,305,7.6,8.1,33,0.00,CLR,OVC,0.00,WeatherDisplay:10.37,2013-04-25 14:32:00,
2013-04-25 10:37:00,39.4,12.6,28.41,NW,318,4.5,8.1,33,0.00,CLR,OVC,0.00,WeatherDisplay:10.37,2013-04-25 14:37:00,
2013-04-25 10:42:00,39.6,12.8,28.41,WNW,300,5.4,5.8,33,0.00,CLR,OVC,0.00,WeatherDisplay:10.37,2013-04-25 14:42:00,
2013-04-25 10:47:00,40.5,12.9,28.41,NNW,328,5.8,8.1,32,0.00,CLR,OVC,0.00,WeatherDisplay:10.37,2013-04-25 14:47:00,
2013-04-25 10:52:00,41.5,13.8,28.44,WNW,288,4.5,4.5,32,0.00,CLR,OVC,0.00,WeatherDisplay:10.37,2013-04-25 14:52:00,
2013-04-25 10:57:00,42.1,12.8,28.44,NNW,331,4.9,8.1,30,0.00,CLR,OVC,0.00,WeatherDisplay:10.37,2013-04-25 14:57:00,
2013-04-25 11:02:00,42.8,14.2,28.44,WSW,256,5.4,8.1,31,0.00,CLR,OVC,0.00,WeatherDisplay:10.37,2013-04-25 15:02:00,
2013-04-25 11:07:00,43.9,12.8,28.44,WNW,289,6.7,6.7,28,0.00,CLR,OVC,0.00,WeatherDisplay:10.37,2013-04-25 15:07:00,
2013-04-25 11:12:00,43.7,12.7,28.44,WNW,282,4.5,5.8,28,0.00,CLR,OVC,0.00,WeatherDisplay:10.37,2013-04-25 15:12:00,
2013-04-25 11:17:00,44.2,13.1,28.44,WSW,258,4.5,5.8,28,0.00,CLR,OVC,0.00,WeatherDisplay:10.37,2013-04-25 15:17:00,
2013-04-25 11:22:00,44.4,13.3,28.44,SW,234,3.1,5.8,28,0.00,CLR,OVC,0.00,WeatherDisplay:10.37,2013-04-25 15:22:00,
2013-04-25 11:27:00,44.8,13.6,28.44,NNW,336,4.0,5.8,28,0.00,CLR,OVC,0.00,WeatherDisplay:10.37,2013-04-25 15:27:00,
2013-04-25 11:32:00,44.4,12.5,28.44,NW,323,5.4,8.1,27,0.00,CLR,OVC,0.00,WeatherDisplay:10.37,2013-04-25 15:32:00,
2013-04-25 11:37:00,44.6,12.6,28.44,NW,326,7.2,10.4,27,0.00,CLR,OVC,0.00,WeatherDisplay:10.37,2013-04-25 15:37:00,
2013-04-25 11:42:00,45.1,13.1,28.44,West,268,6.7,9.2,27,0.00,CLR,OVC,0.00,WeatherDisplay:10.37,2013-04-25 15:42:00,
2013-04-25 11:47:00,45.7,10.9,28.44,WSW,254,5.4,9.2,24,0.00,CLR,OVC,0.00,WeatherDisplay:10.37,2013-04-25 15:47:00,
2013-04-25 11:52:00,45.7,10.9,28.47,West,267,7.6,9.2,24,0.00,CLR,OVC,0.00,WeatherDisplay:10.37,2013-04-25 15:52:00,
2013-04-25 11:57:00,45.5,10.7,28.47,NW,318,3.6,10.4,24,0.00,CLR,OVC,0.00,WeatherDisplay:10.37,2013-04-25 15:57:00,
2013-04-25 12:02:00,46.2,9.4,28.47,North,8,5.4,8.1,22,0.00,CLR,OVC,0.00,WeatherDisplay:10.37,2013-04-25 16:02:00,
2013-04-25 12:07:00,46.2,9.4,28.47,NNW,345,4.5,5.8,22,0.00,CLR,OVC,0.00,WeatherDisplay:10.37,2013-04-25 16:07:00,
2013-04-25 12:12:00,45.9,9.1,28.47,West,278,7.2,10.4,22,0.00,CLR,OVC,0.00,WeatherDisplay:10.37,2013-04-25 16:12:00,
2013-04-25 12:17:00,45.1,6.4,28.47,WSW,257,5.4,9.2,20,0.00,CLR,OVC,0.00,WeatherDisplay:10.37,2013-04-25 16:17:00,
2013-04-25 12:22:00,45.0,6.2,28.47,West,260,5.4,8.1,20,0.00,CLR,OVC,0.00,WeatherDisplay:10.37,2013-04-25 16:22:00,
2013-04-25 12:27:00,45.3,6.5,28.47,NW,325,6.7,9.2,20,0.00,CLR,OVC,0.00,WeatherDisplay:10.37,2013-04-25 16:27:00,
2013-04-25 12:32:00,44.6,5.9,28.47,NW,309,6.7,8.1,20,0.00,CLR,OVC,0.00,WeatherDisplay:10.37,2013-04-25 16:32:00,
2013-04-25 12:37:00,43.2,4.7,28.47,West,271,3.6,5.8,20,0.00,CLR,OVC,0.00,WeatherDisplay:10.37,2013-04-25 16:37:00,
2013-04-25 12:42:00,43.9,5.3,28.47,NNW,330,6.3,12.7,20,0.00,CLR,OVC,0.00,WeatherDisplay:10.37,2013-04-25 16:42:00,
2013-04-25 12:47:00,44.2,5.6,28.47,NW,306,4.5,8.1,20,0.00,CLR,OVC,0.00,WeatherDisplay:10.37,2013-04-25 16:47:00,
2013-04-25 12:52:00,43.9,5.3,28.47,NNW,330,6.3,8.1,20,0.00,CLR,OVC,0.00,WeatherDisplay:10.37,2013-04-25 16:52:00,
2013-04-25 12:57:00,46.4,6.3,28.47,NW,307,6.3,11.5,19,0.00,CLR,OVC,0.00,WeatherDisplay:10.37,2013-04-25 16:57:00,
2013-04-25 13:02:00,47.5,7.2,28.47,NNW,329,7.6,9.2,19,0.00,CLR,OVC,0.00,WeatherDisplay:10.37,2013-04-25 17:02:00,
2013-04-25 13:07:00,46.8,6.6,28.47,WNW,291,4.0,5.8,19,0.00,CLR,OVC,0.00,WeatherDisplay:10.37,2013-04-25 17:07:00,
2013-04-25 13:12:00,46.0,6.0,28.47,North,357,5.4,8.1,19,0.00,CLR,OVC,0.00,WeatherDisplay:10.37,2013-04-25 17:12:00,
2013-04-25 13:17:00,46.0,6.0,28.47,NNW,337,4.5,4.6,19,0.00,CLR,OVC,0.00,WeatherDisplay:10.37,2013-04-25 17:17:00,
2013-04-25 13:22:00,46.2,6.1,28.50,WNW,291,5.4,11.5,19,0.00,CLR,OVC,0.00,WeatherDisplay:10.37,2013-04-25 17:22:00,
2013-04-25 13:27:00,48.0,7.6,28.50,West,269,7.2,8.1,19,0.00,CLR,OVC,0.00,WeatherDisplay:10.37,2013-04-25 17:27:00,
2013-04-25 13:32:00,47.8,7.5,28.50,NW,307,6.3,9.2,19,0.00,CLR,OVC,0.00,WeatherDisplay:10.37,2013-04-25 17:32:00,
2013-04-25 13:37:00,45.5,5.6,28.50,WNW,293,7.6,9.2,19,0.00,CLR,OVC,0.00,WeatherDisplay:10.37,2013-04-25 17:37:00,
2013-04-25 13:42:00,43.7,5.2,28.50,SW,231,4.9,8.1,20,0.00,CLR,OVC,0.00,WeatherDisplay:10.37,2013-04-25 17:42:00,
2013-04-25 13:47:00,44.8,6.1,28.50,NNW,332,4.5,5.8,20,0.00,CLR,OVC,0.00,WeatherDisplay:10.37,2013-04-25 17:47:00,
2013-04-25 13:52:00,47.3,7.0,28.50,NW,319,0.0,2.7,19,0.00,CLR,OVC,0.00,WeatherDisplay:10.37,2013-04-25 17:52:00,
2013-04-25 13:57:00,48.6,8.1,28.50,West,280,4.5,5.8,19,0.00,CLR,OVC,0.00,WeatherDisplay:10.37,2013-04-25 17:57:00,
2013-04-25 14:02:00,48.2,7.8,28.50,NNW,338,4.5,5.8,19,0.00,CLR,OVC,0.00,WeatherDisplay:10.37,2013-04-25 18:02:00,
2013-04-25 14:07:00,46.6,6.4,28.50,NW,307,3.6,5.8,19,0.00,CLR,OVC,0.00,WeatherDisplay:10.37,2013-04-25 18:07:00,
2013-04-25 14:12:00,45.1,6.4,28.50,WSW,244,5.4,9.2,20,0.00,CLR,OVC,0.00,WeatherDisplay:10.37,2013-04-25 18:12:00,
2013-04-25 14:17:00,46.9,6.7,28.50,WNW,288,7.6,8.1,19,0.00,CLR,OVC,0.00,WeatherDisplay:10.37,2013-04-25 18:17:00,
2013-04-25 14:22:00,47.8,7.5,28.50,NW,313,4.0,5.8,19,0.00,CLR,OVC,0.00,WeatherDisplay:10.37,2013-04-25 18:22:00,
2013-04-25 14:27:00,47.1,6.9,28.50,NW,315,5.8,8.1,19,0.00,CLR,OVC,0.00,WeatherDisplay:10.37,2013-04-25 18:27:00,
2013-04-25 14:32:00,48.4,7.9,28.50,West,280,6.3,8.1,19,0.00,CLR,OVC,0.00,WeatherDisplay:10.37,2013-04-25 18:32:00,
2013-04-25 14:37:00,48.7,8.2,28.50,West,263,7.6,10.4,19,0.00,CLR,OVC,0.00,WeatherDisplay:10.37,2013-04-25 18:37:00,
2013-04-25 14:42:00,49.3,8.7,28.50,NNW,332,5.8,5.8,19,0.00,CLR,OVC,0.00,WeatherDisplay:10.37,2013-04-25 18:42:00,
2013-04-25 14:47:00,50.5,9.7,28.50,West,266,6.7,8.1,19,0.00,CLR,OVC,0.00,WeatherDisplay:10.37,2013-04-25 18:47:00,
2013-04-25 14:52:00,50.0,9.3,28.53,NNW,333,5.4,5.8,19,0.00,CLR,OVC,0.00,WeatherDisplay:10.37,2013-04-25 18:52:00,
2013-04-25 14:57:00,48.6,8.1,28.53,North,353,5.4,5.8,19,0.00,CLR,OVC,0.00,WeatherDisplay:10.37,2013-04-25 18:57:00,
2013-04-25 15:02:00,47.1,6.9,28.53,NNW,328,5.4,9.2,19,0.00,CLR,OVC,0.00,WeatherDisplay:10.37,2013-04-25 19:02:00,
2013-04-25 15:07:00,45.5,5.6,28.53,WNW,296,4.5,8.1,19,0.00,CLR,OVC,0.00,WeatherDisplay:10.37,2013-04-25 19:07:00,
2013-04-25 15:12:00,46.6,6.4,28.53,West,262,4.9,9.2,19,0.00,CLR,OVC,0.00,WeatherDisplay:10.37,2013-04-25 19:12:00,
2013-04-25 15:17:00,49.5,8.8,28.53,West,263,9.6,11.5,19,0.00,CLR,OVC,0.00,WeatherDisplay:10.37,2013-04-25 19:17:00,
2013-04-25 15:22:00,49.8,9.1,28.53,NW,325,4.0,12.7,19,0.00,CLR,OVC,0.00,WeatherDisplay:10.37,2013-04-25 19:22:00,
2013-04-25 15:27:00,48.9,8.4,28.53,WNW,283,7.2,10.4,19,0.00,CLR,OVC,0.00,WeatherDisplay:10.37,2013-04-25 19:27:00,
2013-04-25 15:32:00,46.8,6.6,28.53,WNW,285,4.9,8.1,19,0.00,CLR,OVC,0.00,WeatherDisplay:10.37,2013-04-25 19:32:00,
2013-04-25 15:37:00,49.6,9.0,28.53,WSW,239,3.6,5.8,19,0.00,CLR,OVC,0.00,WeatherDisplay:10.37,2013-04-25 19:37:00,
2013-04-25 15:42:00,52.9,10.5,28.53,West,259,3.1,5.8,18,0.00,CLR,OVC,0.00,WeatherDisplay:10.37,2013-04-25 19:42:00,
2013-04-25 15:47:00,52.7,10.3,28.53,NW,322,7.2,10.4,18,0.00,CLR,OVC,0.00,WeatherDisplay:10.37,2013-04-25 19:47:00,
2013-04-25 15:52:00,52.2,9.9,28.53,West,281,5.8,8.1,18,0.00,CLR,OVC,0.00,WeatherDisplay:10.37,2013-04-25 19:52:00,
2013-04-25 15:57:00,52.3,10.0,28.53,West,276,6.7,10.4,18,0.00,CLR,OVC,0.00,WeatherDisplay:10.37,2013-04-25 19:57:00,
2013-04-25 16:02:00,49.3,8.7,28.53,NNW,333,5.4,8.1,19,0.00,CLR,OVC,0.00,WeatherDisplay:10.37,2013-04-25 20:02:00,
2013-04-25 16:07:00,46.9,6.7,28.53,NNW,332,2.2,5.8,19,0.00,CLR,OVC,0.00,WeatherDisplay:10.37,2013-04-25 20:07:00,
2013-04-25 16:12:00,46.0,6.0,28.53,West,264,4.0,5.8,19,0.00,CLR,OVC,0.00,WeatherDisplay:10.37,2013-04-25 20:12:00,
2013-04-25 16:17:00,48.4,7.9,28.53,NW,321,4.0,5.8,19,0.00,CLR,OVC,0.00,WeatherDisplay:10.37,2013-04-25 20:17:00,
2013-04-25 16:22:00,48.2,7.8,28.53,West,274,5.8,5.8,19,0.00,CLR,OVC,0.00,WeatherDisplay:10.37,2013-04-25 20:22:00,
2013-04-25 16:27:00,47.3,7.0,28.53,West,260,4.0,9.2,19,0.00,CLR,OVC,0.00,WeatherDisplay:10.37,2013-04-25 20:27:00,
2013-04-25 16:32:00,46.4,6.3,28.53,WNW,297,5.8,10.4,19,0.00,CLR,OVC,0.00,WeatherDisplay:10.37,2013-04-25 20:32:00,
2013-04-25 16:37:00,45.5,5.6,28.53,NW,307,3.1,5.8,19,0.00,CLR,OVC,0.00,WeatherDisplay:10.37,2013-04-25 20:37:00,
2013-04-25 16:42:00,46.4,6.3,28.53,WSW,258,3.1,5.8,19,0.00,CLR,OVC,0.00,WeatherDisplay:10.37,2013-04-25 20:42:00,
2013-04-25 16:47:00,48.6,8.1,28.53,WSW,243,4.9,6.3,19,0.00,CLR,OVC,0.00,WeatherDisplay:10.37,2013-04-25 20:47:00,
2013-04-25 16:52:00,49.1,8.5,28.53,WNW,282,4.5,9.2,19,0.00,CLR,OVC,0.00,WeatherDisplay:10.37,2013-04-25 20:52:00,
2013-04-25 16:57:00,48.6,8.1,28.53,WNW,285,4.9,4.9,19,0.00,CLR,OVC,0.00,WeatherDisplay:10.37,2013-04-25 20:57:00,
2013-04-25 17:02:00,50.0,9.3,28.53,West,273,4.0,8.1,19,0.00,CLR,OVC,0.00,WeatherDisplay:10.37,2013-04-25 21:02:00,
2013-04-25 17:07:00,48.2,7.8,28.53,WNW,284,7.6,8.1,19,0.00,CLR,OVC,0.00,WeatherDisplay:10.37,2013-04-25 21:07:00,
2013-04-25 17:12:00,46.8,6.6,28.53,West,274,4.5,5.8,19,0.00,CLR,OVC,0.00,WeatherDisplay:10.37,2013-04-25 21:12:00,
2013-04-25 17:17:00,46.4,6.3,28.53,West,265,3.1,8.1,19,0.00,CLR,OVC,0.00,WeatherDisplay:10.37,2013-04-25 21:17:00,
2013-04-25 17:22:00,46.8,6.6,28.53,SW,235,6.7,6.7,19,0.00,CLR,OVC,0.00,WeatherDisplay:10.37,2013-04-25 21:22:00,
2013-04-25 17:27:00,49.3,8.7,28.53,West,274,4.0,5.8,19,0.00,CLR,OVC,0.00,WeatherDisplay:10.37,2013-04-25 21:27:00,
2013-04-25 17:32:00,49.5,8.8,28.53,WSW,241,2.2,3.5,19,0.00,CLR,OVC,0.00,WeatherDisplay:10.37,2013-04-25 21:32:00,
2013-04-25 17:37:00,50.2,9.4,28.53,NNW,340,3.6,8.1,19,0.00,CLR,OVC,0.00,WeatherDisplay:10.37,2013-04-25 21:37:00,
2013-04-25 17:42:00,51.8,9.6,28.53,WNW,301,3.1,3.5,18,0.00,CLR,OVC,0.00,WeatherDisplay:10.37,2013-04-25 21:42:00,
2013-04-25 17:47:00,51.3,9.1,28.53,West,279,4.0,8.1,18,0.00,CLR,OVC,0.00,WeatherDisplay:10.37,2013-04-25 21:47:00,
2013-04-25 17:52:00,50.5,9.7,28.53,South,186,3.6,5.8,19,0.00,CLR,OVC,0.00,WeatherDisplay:10.37,2013-04-25 21:52:00,
2013-04-25 17:57:00,49.8,9.1,28.53,SW,218,3.1,3.5,19,0.00,CLR,OVC,0.00,WeatherDisplay:10.37,2013-04-25 21:57:00,
2013-04-25 18:02:00,47.8,7.5,28.53,SW,221,3.1,5.8,19,0.00,CLR,OVC,0.00,WeatherDisplay:10.37,2013-04-25 22:02:00,
2013-04-25 18:07:00,47.3,7.0,28.56,South,188,3.6,3.6,19,0.00,CLR,OVC,0.00,WeatherDisplay:10.37,2013-04-25 22:07:00,
2013-04-25 18:12:00,48.2,7.8,28.56,NW,320,3.6,8.1,19,0.00,CLR,OVC,0.00,WeatherDisplay:10.37,2013-04-25 22:12:00,
2013-04-25 18:17:00,48.0,7.6,28.56,WSW,258,6.3,8.1,19,0.00,CLR,OVC,0.00,WeatherDisplay:10.37,2013-04-25 22:17:00,
2013-04-25 18:22:00,47.1,6.9,28.56,NNW,327,2.7,3.5,19,0.00,CLR,OVC,0.00,WeatherDisplay:10.37,2013-04-25 22:22:00,
2013-04-25 18:27:00,46.2,6.1,28.56,South,181,3.1,9.2,19,0.00,CLR,OVC,0.00,WeatherDisplay:10.37,2013-04-25 22:27:00,
2013-04-25 18:32:00,46.4,3.9,28.56,WSW,248,3.6,5.8,17,0.00,CLR,OVC,0.00,WeatherDisplay:10.37,2013-04-25 22:32:00,
2013-04-25 18:37:00,46.4,3.9,28.56,South,184,4.0,6.9,17,0.00,CLR,OVC,0.00,WeatherDisplay:10.37,2013-04-25 22:37:00,
2013-04-25 18:42:00,46.8,4.2,28.56,SW,232,4.9,8.1,17,0.00,CLR,OVC,0.00,WeatherDisplay:10.37,2013-04-25 22:42:00,
2013-04-25 18:47:00,47.1,6.9,28.56,WSW,253,2.2,8.1,19,0.00,CLR,OVC,0.00,WeatherDisplay:10.37,2013-04-25 22:47:00,
2013-04-25 18:52:00,46.6,6.4,28.56,NNW,328,3.6,8.1,19,0.00,CLR,OVC,0.00,WeatherDisplay:10.37,2013-04-25 22:52:00,
2013-04-25 18:57:00,45.9,3.4,28.56,West,268,2.2,5.8,17,0.00,CLR,OVC,0.00,WeatherDisplay:10.37,2013-04-25 22:57:00,
2013-04-25 19:02:00,45.0,2.7,28.56,WNW,294,0.0,3.5,17,0.00,CLR,OVC,0.00,WeatherDisplay:10.37,2013-04-25 23:02:00,
2013-04-25 19:07:00,44.4,2.2,28.56,SSW,213,3.6,4.6,17,0.00,CLR,OVC,0.00,WeatherDisplay:10.37,2013-04-25 23:07:00,
2013-04-25 19:12:00,44.1,1.9,28.56,SW,226,2.7,3.5,17,0.00,CLR,OVC,0.00,WeatherDisplay:10.37,2013-04-25 23:12:00,
2013-04-25 19:17:00,43.3,2.6,28.56,WSW,242,4.0,5.8,18,0.00,CLR,OVC,0.00,WeatherDisplay:10.37,2013-04-25 23:17:00,
2013-04-25 19:22:00,42.6,2.0,28.56,SSW,211,2.7,3.5,18,0.00,CLR,OVC,0.00,WeatherDisplay:10.37,2013-04-25 23:22:00,
2013-04-25 19:27:00,42.4,1.8,28.56,SSW,199,2.7,3.5,18,0.00,CLR,OVC,0.00,WeatherDisplay:10.37,2013-04-25 23:27:00,
2013-04-25 19:32:00,42.6,2.0,28.56,WNW,301,3.6,5.8,18,0.00,CLR,OVC,0.00,WeatherDisplay:10.37,2013-04-25 23:32:00,
2013-04-25 19:37:00,42.6,2.0,28.56,SSW,212,0.0,0.0,18,0.00,CLR,OVC,0.00,WeatherDisplay:10.37,2013-04-25 23:37:00,
2013-04-25 19:42:00,42.8,2.1,28.56,South,189,4.5,5.8,18,0.00,CLR,OVC,0.00,WeatherDisplay:10.37,2013-04-25 23:42:00,
2013-04-25 19:47:00,42.6,2.0,28.56,WSW,239,2.2,5.8,18,0.00,CLR,OVC,0.00,WeatherDisplay:10.37,2013-04-25 23:47:00,
2013-04-25 19:52:00,42.4,1.8,28.56,WSW,250,0.0,0.0,18,0.00,CLR,OVC,0.00,WeatherDisplay:10.37,2013-04-25 23:52:00,
2013-04-25 19:57:00,42.1,1.5,28.56,WSW,245,3.1,5.8,18,0.00,CLR,OVC,0.00,WeatherDisplay:10.37,2013-04-25 23:57:00,
2013-04-25 20:02:00,41.5,1.1,28.56,West,260,0.0,3.5,18,0.00,CLR,OVC,0.00,WeatherDisplay:10.37,2013-04-26 00:02:00,
2013-04-25 20:07:00,41.4,0.9,28.56,WSW,244,0.0,0.0,18,0.00,CLR,OVC,0.00,WeatherDisplay:10.37,2013-04-26 00:07:00,
2013-04-25 20:12:00,41.0,4.0,28.56,SSW,193,0.0,0.0,21,0.00,CLR,OVC,0.00,WeatherDisplay:10.37,2013-04-26 00:12:00,
2013-04-25 20:17:00,40.6,0.4,28.56,South,191,0.0,2.3,18,0.00,CLR,OVC,0.00,WeatherDisplay:10.37,2013-04-26 00:17:00,
2013-04-25 20:22:00,40.3,3.4,28.56,East,91,2.2,8.1,21,0.00,CLR,OVC,0.00,WeatherDisplay:10.37,2013-04-26 00:22:00,
2013-04-25 20:27:00,39.7,2.9,28.56,ENE,77,3.1,3.5,21,0.00,CLR,OVC,0.00,WeatherDisplay:10.37,2013-04-26 00:27:00,
2013-04-25 20:32:00,39.0,4.3,28.56,East,83,4.9,5.8,23,0.00,CLR,OVC,0.00,WeatherDisplay:10.37,2013-04-26 00:32:00,
2013-04-25 20:37:00,38.3,3.7,28.58,ESE,103,4.5,5.8,23,0.00,CLR,OVC,0.00,WeatherDisplay:10.37,2013-04-26 00:37:00,
2013-04-25 20:42:00,37.6,8.1,28.58,ESE,117,4.0,6.3,29,0.00,CLR,OVC,0.00,WeatherDisplay:10.37,2013-04-26 00:42:00,
2013-04-25 20:47:00,37.2,7.8,28.58,ESE,118,3.6,5.8,29,0.00,CLR,OVC,0.00,WeatherDisplay:10.37,2013-04-26 00:47:00,
2013-04-25 20:52:00,36.9,7.5,28.58,ENE,62,0.0,4.9,29,0.00,CLR,OVC,0.00,WeatherDisplay:10.37,2013-04-26 00:52:00,
2013-04-25 20:57:00,36.1,7.6,28.58,ESE,106,4.9,5.8,30,0.00,CLR,OVC,0.00,WeatherDisplay:10.37,2013-04-26 00:57:00,
2013-04-25 21:02:00,35.8,7.3,28.58,SE,126,4.5,5.8,30,0.00,CLR,OVC,0.00,WeatherDisplay:10.37,2013-04-26 01:02:00,
2013-04-25 21:07:00,35.6,7.2,28.58,ESE,104,4.5,5.8,30,0.00,CLR,OVC,0.00,WeatherDisplay:10.37,2013-04-26 01:07:00,
2013-04-25 21:12:00,35.4,7.7,28.58,SE,134,3.6,4.6,31,0.00,CLR,OVC,0.00,WeatherDisplay:10.37,2013-04-26 01:12:00,
2013-04-25 21:17:00,34.9,7.3,28.58,East,89,2.2,2.3,31,0.00,CLR,OVC,0.00,WeatherDisplay:10.37,2013-04-26 01:17:00,
2013-04-25 21:22:00,34.5,7.6,28.58,ESE,106,0.0,3.5,32,0.00,CLR,OVC,0.00,WeatherDisplay:10.37,2013-04-26 01:22:00,
2013-04-25 21:27:00,33.8,7.0,28.58,East,98,2.2,3.5,32,0.00,CLR,OVC,0.00,WeatherDisplay:10.37,2013-04-26 01:27:00,
2013-04-25 21:32:00,33.1,7.1,28.58,East,98,0.0,2.3,33,0.00,CLR,OVC,0.00,WeatherDisplay:10.37,2013-04-26 01:32:00,
2013-04-25 21:37:00,32.4,6.4,28.58,ENE,76,0.0,0.0,33,0.00,CLR,OVC,0.00,WeatherDisplay:10.37,2013-04-26 01:37:00,
2013-04-25 21:42:00,31.6,5.8,28.58,East,90,0.0,0.0,33,0.00,CLR,OVC,0.00,WeatherDisplay:10.37,2013-04-26 01:42:00,
2013-04-25 21:47:00,30.9,8.2,28.58,East,90,0.0,0.0,38,0.00,CLR,OVC,0.00,WeatherDisplay:10.37,2013-04-26 01:47:00,
2013-04-25 21:52:00,30.9,9.9,28.58,East,99,0.0,0.0,41,0.00,CLR,OVC,0.00,WeatherDisplay:10.37,2013-04-26 01:52:00,
2013-04-25 21:57:00,30.4,9.5,28.58,SE,135,0.0,2.3,41,0.00,CLR,OVC,0.00,WeatherDisplay:10.37,2013-04-26 01:57:00,
2013-04-25 22:02:00,30.0,9.1,28.58,SE,129,0.0,0.0,41,0.00,CLR,OVC,0.00,WeatherDisplay:10.37,2013-04-26 02:02:00,
2013-04-25 22:07:00,29.5,8.6,28.58,East,93,0.0,2.3,41,0.00,CLR,OVC,0.00,WeatherDisplay:10.37,2013-04-26 02:07:00,
2013-04-25 22:12:00,29.3,8.5,28.58,ESE,115,0.0,3.5,41,0.00,CLR,OVC,0.00,WeatherDisplay:10.37,2013-04-26 02:12:00,
2013-04-25 22:17:00,28.8,9.6,28.58,ESE,115,0.0,0.0,44,0.00,CLR,OVC,0.00,WeatherDisplay:10.37,2013-04-26 02:17:00,
2013-04-25 22:22:00,28.2,8.6,28.61,ESE,115,0.0,0.0,43,0.00,CLR,OVC,0.00,WeatherDisplay:10.37,2013-04-26 02:22:00,
2013-04-25 22:27:00,27.7,8.1,28.61,ESE,115,0.0,0.0,43,0.00,CLR,OVC,0.00,WeatherDisplay:10.37,2013-04-26 02:27:00,
2013-04-25 22:32:00,27.3,7.7,28.61,ESE,116,0.0,0.0,43,0.00,CLR,OVC,0.00,WeatherDisplay:10.37,2013-04-26 02:32:00,
2013-04-25 22:37:00,27.7,12.8,28.61,East,98,0.0,0.0,53,0.00,CLR,OVC,0.00,WeatherDisplay:10.37,2013-04-26 02:37:00,
2013-04-25 22:42:00,27.5,11.7,28.61,East,90,0.0,2.3,51,0.00,CLR,OVC,0.00,WeatherDisplay:10.37,2013-04-26 02:42:00,
2013-04-25 22:47:00,27.3,11.5,28.61,East,91,0.0,0.0,51,0.00,CLR,OVC,0.00,WeatherDisplay:10.37,2013-04-26 02:47:00,
2013-04-25 22:52:00,27.1,11.8,28.61,East,95,0.0,0.0,52,0.00,CLR,OVC,0.00,WeatherDisplay:10.37,2013-04-26 02:52:00,
2013-04-25 22:57:00,27.1,11.8,28.61,East,95,0.0,0.0,52,0.00,CLR,OVC,0.00,WeatherDisplay:10.37,2013-04-26 02:57:00,
2013-04-25 23:02:00,27.0,11.2,28.61,East,95,0.0,0.0,51,0.00,CLR,OVC,0.00,WeatherDisplay:10.37,2013-04-26 03:02:00,
2013-04-25 23:07:00,26.6,10.0,28.61,East,95,0.0,0.0,49,0.00,CLR,OVC,0.00,WeatherDisplay:10.37,2013-04-26 03:07:00,
2013-04-25 23:12:00,25.9,8.4,28.61,East,95,0.0,0.0,47,0.00,CLR,OVC,0.00,WeatherDisplay:10.37,2013-04-26 03:12:00,
2013-04-25 23:17:00,25.5,8.1,28.61,East,95,0.0,0.0,47,0.00,CLR,OVC,0.00,WeatherDisplay:10.37,2013-04-26 03:17:00,
2013-04-25 23:22:00,25.7,10.5,28.61,East,95,0.0,0.0,52,0.00,CLR,OVC,0.00,WeatherDisplay:10.37,2013-04-26 03:22:00,
2013-04-25 23:27:00,25.5,9.9,28.61,East,95,0.0,0.0,51,0.00,CLR,OVC,0.00,WeatherDisplay:10.37,2013-04-26 03:27:00,
2013-04-25 23:32:00,25.9,11.5,28.61,East,95,0.0,0.0,54,0.00,CLR,OVC,0.00,WeatherDisplay:10.37,2013-04-26 03:32:00,
2013-04-25 23:37:00,25.9,11.5,28.61,East,95,0.0,0.0,54,0.00,CLR,OVC,0.00,WeatherDisplay:10.37,2013-04-26 03:37:00,
2013-04-25 23:42:00,26.2,14.6,28.61,East,95,0.0,0.0,61,0.00,CLR,OVC,0.00,WeatherDisplay:10.37,2013-04-26 03:42:00,
2013-04-25 23:47:00,26.1,14.1,28.61,East,92,0.0,0.0,60,0.00,CLR,OVC,0.00,WeatherDisplay:10.37,2013-04-26 03:47:00,
2013-04-25 23:52:00,25.7,12.9,28.61,East,92,0.0,2.3,58,0.00,CLR,OVC,0.00,WeatherDisplay:10.37,2013-04-26 03:52:00,
2013-04-25 23:57:00,25.7,13.3,28.61,East,92,0.0,0.0,59,0.00,CLR,OVC,0.00,WeatherDisplay:10.37,2013-04-26 03:57:00,